Preview of NWS' New Version of Forecast
This preview is not operational and should not be used for support decisions.

Regional Weather Roundup (RWR)

Issued by National Weather Service (NWS)

                            
000
ASUS43 KLSX 241007
RWRMO 

WEATHER SUMMARY FOR MISSOURI
NATIONAL WEATHER SERVICE SPRINGFIELD MO
500 AM CDT WED APR 24 2019

NOTE: "FAIR" INDICATES FEW OR NO CLOUDS BELOW 12,000 FEET WITH NO
       SIGNIFICANT WEATHER AND/OR OBSTRUCTIONS TO VISIBILITY.
       CURRENT SKY AND/OR WEATHER CONDITIONS ARE NOT AVAILABLE FOR
       CHILLICOTHE AND FARMINGTON.

MOZ001>031-035>038-043-044-053-054-241100-
...NORTHERN AND WESTERN MISSOURI...
  
CITY           SKY/WX    TMP DP  RH WIND       PRES   REMARKS
KANSAS CTY INT CLOUDY    52  49  89 N5        29.93F                  
KANSAS C DTWN  CLOUDY    54  50  86 N5        29.93F                  
LEE'S SUMMIT   CLOUDY    53  50  89 MISG      29.93F                  
ST JOSEPH      CLOUDY    52  52 100 CALM      29.95F                  
CHILLICOTHE      N/A     52  49  89 CALM      29.97S                  
KIRKSVILLE     CLOUDY    52  51  97 E3        29.96F FOG              
     
$$
MOZ066>068-077>081-088>096-101>105-241100-
...SOUTHWEST MISSOURI...
  
CITY           SKY/WX    TMP DP  RH WIND       PRES   REMARKS
SPRINGFIELD    FOG       57  55  93 CALM      29.90F VSB 1/2          
JOPLIN         FOG       55  55 100 NW3       29.92S VSB 1/4          
BRANSON        LGT RAIN  59  59 100 CALM      29.92S                  
               
$$
MOZ032>034-039>042-045>050-055>058-069>072-241100-
...CENTRAL MISSOURI...  
  
CITY           SKY/WX    TMP DP  RH WIND       PRES   REMARKS
COLUMBIA       CLOUDY    56  54  93 N5        29.92F FOG              
JEFFERSON CITY CLOUDY    57  55  93 CALM      29.90F FOG              
ROLLA          CLOUDY    56  54  93 CALM      29.92S FOG              
SEDALIA        CLOUDY    52  52 100 N6        29.93S FOG              
WHITEMAN AFB   CLOUDY    54  54 100 N5        29.89F FOG              
WARRENSBURG    CLOUDY    52  52 100 N5        29.92F FOG              
OSAGE BEACH    CLOUDY    56  55  97 CALM      29.92S FOG              
               
$$
MOZ051-052-059>065-241100-
...EAST CENTRAL MISSOURI...
  
CITY           SKY/WX    TMP DP  RH WIND       PRES   REMARKS
ST LOUIS INTL  RAIN      57  55  93 E8        29.94S FOG              
SPIRIT OF STL  RAIN      58  57  97 E5        29.92F FOG              
ST CHARLES     LGT RAIN  57  55  93 E7        29.94S FOG              
                   
$$
MOZ072>076-082>087-097>100-106>115-241100-
...SOUTH CENTRAL AND SOUTHEAST MISSOURI...
  
CITY           SKY/WX    TMP DP  RH WIND       PRES   REMARKS
CAPE GIRARDEAU FAIR      59  57  93 E3        29.93R FOG              
FARMINGTON     CLOUDY    58  56  93 CALM      29.93                   
POPLAR BLUFF   FAIR      56  56 100 CALM      29.92F FOG              
WEST PLAINS    CLOUDY    63  56  78 SW6       29.93S                  
                                       
$$